Location: Unspecified
(0.0000°N, 0.0000°E)
Time: 04:52:29
(UTC+00:00)

deb West Ford - Pass Details

Date: 19 May 2026
Orbit: 2163 x 4941 km, 86.7° (Epoch: 8 June)

Event Time Altitude Azimuth Distance (km) Brightness Sun altitude
Exits shadow 01:10:09 28° 32° (NNE) 3,526 ? -63.3°
Drops below altitude 10° 01:14:40 10° 18° (NNE) 4,695 ? -62.5°
Sets 01:17:54 0° 13° (NNE) 5,676 ? -61.9°
